User: anonymous   Login
Location: Unspecified
(0.0000°N, 0.0000°E)
Time: 14:45:18
(UTC+00:00)
Language:

Envisat - Orbit

View from above orbital plane
View from above orbital plane
View from above satellite
View from above satellite

Ground track
Ground track

The orbit data is extracted from the following two-line orbital elements,

1 27386U 02009A   19051.09785823 -.00000011  00000-0  97834-5 0  9994
2 27386  98.1607  78.1212 0001180  97.0617 326.5593 14.37941613889153
Epoch (UTC): 20 February 2019 02:20:54
Eccentricity: 0.0001180
inclination: 98.1607°
perigee height: 764 km
apogee height: 766 km
right ascension of ascending node: 78.1212°
argument of perigee: 97.0617°
revolutions per day: 14.37941613
mean anomaly at epoch: 326.5593°
orbit number at epoch: 88915

The dashed part of the orbit path shows where the satellite is in the earth's shadow,  

DLR